• In Netherlands
  • List of Countries
  • For 7 days
  • Water Temperature
  • Satellite Maps
  • Weather Map
  • Weather Widgets
  • user-avatar
    Login

    Hourly Weather Ghazni

    Today, 30 April, Sunday

    Time Temperature Precipitation Wind Pressure Humidity
    00:00 +14°C° 0 mm 3 mps 587 mmHg 17%
    01:00 +13°C° 0 mm 3 mps 587 mmHg 19%
    02:00 +12°C° 0 mm 3 mps 587 mmHg 20%
    03:00 +12°C° 0 mm 3 mps 587 mmHg 22%
    04:00 +12°C° 0 mm 2 mps 586 mmHg 23%
    05:00 +10°C° 0 mm 2 mps 586 mmHg 24%
    06:00 +12°C° 0 mm 2 mps 586 mmHg 23%
    07:00 +13°C° 0 mm 2 mps 587 mmHg 22%
    08:00 +13°C° 0 mm 2 mps 587 mmHg 21%
    09:00 +15°C° 0 mm 2 mps 588 mmHg 17%
    10:00 +16°C° 0 mm 2 mps 588 mmHg 14%
    11:00 +18°C° 0 mm 2 mps 589 mmHg 11%
    12:00 +19°C° 0 mm 2 mps 589 mmHg 9%
    13:00 +20°C° 0 mm 3 mps 589 mmHg 8%
    14:00 +21°C° 0 mm 3 mps 589 mmHg 7%
    15:00 +21°C° 0 mm 3 mps 589 mmHg 7%
    16:00 +21°C° 0 mm 3 mps 589 mmHg 7%
    17:00 +22°C° 0 mm 3 mps 588 mmHg 7%
    18:00 +21°C° 0 mm 3 mps 588 mmHg 8%
    19:00 +20°C° 0 mm 3 mps 588 mmHg 10%
    20:00 +19°C° 0 mm 3 mps 588 mmHg 12%
    21:00 +18°C° 0 mm 3 mps 588 mmHg 13%
    22:00 +17°C° 0 mm 2 mps 588 mmHg 15%
    23:00 +17°C° 0 mm 2 mps 588 mmHg 16%

    Tomorrow, 1 May, Monday

    Time Temperature Precipitation Wind Pressure Humidity
    00:00 +16°C° 0 mm 2 mps 587 mmHg 18%
    01:00 +15°C° 0 mm 1 mps 587 mmHg 19%
    02:00 +14°C° 0 mm 1 mps 587 mmHg 20%
    03:00 +14°C° 0 mm 1 mps 586 mmHg 20%
    04:00 +13°C° 0 mm 2 mps 586 mmHg 20%
    05:00 +13°C° 0 mm 2 mps 586 mmHg 20%
    06:00 +14°C° 0 mm 2 mps 587 mmHg 18%
    07:00 +14°C° 0 mm 1 mps 587 mmHg 16%
    08:00 +15°C° 0 mm 1 mps 588 mmHg 15%
    09:00 +18°C° 0 mm 1 mps 588 mmHg 13%
    10:00 +19°C° 0 mm 1 mps 589 mmHg 12%
    11:00 +20°C° 0 mm 1 mps 589 mmHg 11%
    12:00 +20°C° 0 mm 2 mps 589 mmHg 10%
    13:00 +21°C° 0 mm 2 mps 589 mmHg 9%
    14:00 +23°C° 0 mm 2 mps 589 mmHg 8%
    15:00 +22°C° 0 mm 3 mps 589 mmHg 8%
    16:00 +24°C° 0 mm 3 mps 589 mmHg 8%
    17:00 +24°C° 0 mm 3 mps 589 mmHg 8%
    18:00 +22°C° 0 mm 4 mps 589 mmHg 9%
    19:00 +22°C° 0 mm 4 mps 589 mmHg 11%
    20:00 +21°C° 0 mm 5 mps 589 mmHg 12%
    21:00 +20°C° 0 mm 4 mps 589 mmHg 13%
    22:00 +20°C° 0 mm 4 mps 589 mmHg 15%
    23:00 +19°C° 0 mm 4 mps 589 mmHg 16%

    Day after tomorrow, 2 May, Tuesday

    Time Temperature Precipitation Wind Pressure Humidity
    00:00 +18°C° 0 mm 4 mps 589 mmHg 18%
    01:00 +18°C° 0 mm 4 mps 588 mmHg 19%
    02:00 +17°C° 0 mm 3 mps 588 mmHg 20%
    03:00 +17°C° 0 mm 3 mps 588 mmHg 21%
    04:00 +16°C° 0 mm 3 mps 587 mmHg 22%
    05:00 +16°C° 0 mm 2 mps 587 mmHg 23%
    06:00 +16°C° 0.1 mm 3 mps 587 mmHg 25%
    07:00 +14°C° 0.1 mm 3 mps 588 mmHg 27%
    08:00 +14°C° 0.1 mm 3 mps 588 mmHg 29%
    09:00 +14°C° 0.3 mm 3 mps 588 mmHg 33%
    10:00 +14°C° 0.3 mm 3 mps 588 mmHg 38%
    11:00 +13°C° 0.3 mm 3 mps 588 mmHg 43%
    12:00 +14°C° 0.1 mm 3 mps 588 mmHg 42%
    13:00 +16°C° 0.1 mm 3 mps 588 mmHg 41%
    14:00 +17°C° 0.1 mm 3 mps 588 mmHg 39%
    15:00 +16°C° 0.2 mm 3 mps 587 mmHg 41%
    16:00 +16°C° 0.2 mm 3 mps 587 mmHg 42%
    17:00 +16°C° 0.2 mm 3 mps 587 mmHg 44%
    18:00 +16°C° 0.2 mm 2 mps 587 mmHg 47%
    19:00 +15°C° 0.2 mm 2 mps 587 mmHg 50%
    20:00 +14°C° 0.2 mm 2 mps 587 mmHg 53%
    21:00 +14°C° 0.3 mm 2 mps 587 mmHg 56%
    22:00 +14°C° 0.3 mm 2 mps 587 mmHg 59%
    23:00 +13°C° 0.3 mm 2 mps 587 mmHg 62%

    3 May, Wednesday

    Time Temperature Precipitation Wind Pressure Humidity
    00:00 +13°C° 0.1 mm 1 mps 587 mmHg 63%
    01:00 +13°C° 0.1 mm 1 mps 587 mmHg 65%
    02:00 +13°C° 0.1 mm 1 mps 586 mmHg 66%
    03:00 +12°C° 0 mm 1 mps 586 mmHg 67%
    04:00 +12°C° 0 mm 1 mps 586 mmHg 67%
    05:00 +12°C° 0 mm 1 mps 586 mmHg 68%
    06:00 +12°C° 0.1 mm 1 mps 586 mmHg 65%
    07:00 +13°C° 0.1 mm 1 mps 586 mmHg 63%
    08:00 +13°C° 0.1 mm 1 mps 587 mmHg 61%
    09:00 +15°C° 0 mm 1 mps 587 mmHg 54%
    10:00 +16°C° 0 mm 1 mps 588 mmHg 47%
    11:00 +18°C° 0 mm 1 mps 588 mmHg 40%
    12:00 +18°C° 0 mm 2 mps 588 mmHg 35%
    13:00 +20°C° 0 mm 2 mps 588 mmHg 29%
    14:00 +21°C° 0 mm 3 mps 588 mmHg 24%
    15:00 +21°C° 0 mm 3 mps 588 mmHg 21%
    16:00 +22°C° 0 mm 4 mps 588 mmHg 19%
    17:00 +22°C° 0 mm 5 mps 588 mmHg 16%
    18:00 +22°C° 0 mm 4 mps 588 mmHg 16%
    19:00 +21°C° 0 mm 4 mps 588 mmHg 17%
    20:00 +21°C° 0 mm 4 mps 588 mmHg 17%
    21:00 +20°C° 0 mm 3 mps 588 mmHg 20%
    22:00 +19°C° 0 mm 3 mps 588 mmHg 22%
    23:00 +19°C° 0 mm 3 mps 588 mmHg 24%

    4 May, Thursday

    Time Temperature Precipitation Wind Pressure Humidity
    00:00 +18°C° 0 mm 3 mps 588 mmHg 26%
    01:00 +17°C° 0 mm 3 mps 587 mmHg 28%
    02:00 +16°C° 0 mm 3 mps 587 mmHg 30%
    03:00 +16°C° 0 mm 2 mps 586 mmHg 32%
    04:00 +15°C° 0 mm 2 mps 586 mmHg 33%
    05:00 +15°C° 0 mm 2 mps 586 mmHg 34%
    06:00 +16°C° 0 mm 2 mps 587 mmHg 32%
    07:00 +16°C° 0 mm 1 mps 587 mmHg 29%
    08:00 +18°C° 0 mm 1 mps 588 mmHg 27%
    09:00 +19°C° 0 mm 1 mps 588 mmHg 23%
    10:00 +19°C° 0 mm 2 mps 589 mmHg 20%
    11:00 +20°C° 0 mm 2 mps 589 mmHg 16%
    12:00 +21°C° 0 mm 2 mps 589 mmHg 14%
    13:00 +22°C° 0 mm 3 mps 589 mmHg 13%
    14:00 +24°C° 0 mm 3 mps 589 mmHg 11%
    15:00 +24°C° 0 mm 3 mps 589 mmHg 10%
    16:00 +23°C° 0 mm 4 mps 589 mmHg 10%
    17:00 +25°C° 0 mm 4 mps 589 mmHg 9%
    18:00 +23°C° 0 mm 4 mps 589 mmHg 11%
    19:00 +23°C° 0 mm 4 mps 589 mmHg 12%
    20:00 +22°C° 0 mm 3 mps 589 mmHg 13%
    21:00 +21°C° 0 mm 3 mps 589 mmHg 15%
    22:00 +20°C° 0 mm 2 mps 589 mmHg 17%
    23:00 +20°C° 0 mm 1 mps 589 mmHg 18%

    5 May, Friday

    Time Temperature Precipitation Wind Pressure Humidity
    00:00 +20°C° 0 mm 1 mps 588 mmHg 21%
    01:00 +18°C° 0 mm 2 mps 588 mmHg 23%
    02:00 +17°C° 0 mm 2 mps 587 mmHg 25%
    03:00 +17°C° 0 mm 2 mps 587 mmHg 26%
    04:00 +16°C° 0 mm 2 mps 587 mmHg 28%
    05:00 +16°C° 0 mm 2 mps 587 mmHg 29%
    06:00 +16°C° 0 mm 2 mps 587 mmHg 27%
    07:00 +17°C° 0 mm 2 mps 588 mmHg 25%
    08:00 +19°C° 0 mm 1 mps 588 mmHg 23%
    09:00 +20°C° 0 mm 1 mps 589 mmHg 22%
    10:00 +21°C° 0 mm 1 mps 589 mmHg 21%
    11:00 +22°C° 0 mm 1 mps 589 mmHg 20%
    12:00 +23°C° 0.2 mm 2 mps 589 mmHg 20%
    13:00 +22°C° 0.2 mm 3 mps 589 mmHg 20%
    14:00 +24°C° 0.2 mm 3 mps 589 mmHg 20%
    15:00 +23°C° 0.2 mm 4 mps 589 mmHg 20%
    16:00 +23°C° 0.2 mm 4 mps 589 mmHg 19%
    17:00 +25°C° 0.2 mm 4 mps 588 mmHg 19%
    18:00 +23°C° 0.1 mm 4 mps 589 mmHg 21%
    19:00 +22°C° 0.1 mm 4 mps 589 mmHg 24%
    20:00 +22°C° 0.1 mm 3 mps 589 mmHg 26%
    21:00 +21°C° 0.1 mm 3 mps 589 mmHg 29%
    22:00 +20°C° 0.1 mm 2 mps 589 mmHg 31%
    23:00 +19°C° 0.1 mm 2 mps 589 mmHg 34%
    Show more